Location: Paris
(48.8566°N, 2.3522°E)
Time: 11:48:01
(UTC+01:00)

ISS - Visible Passes

Search period start: 17 February 2019 00:00
Search period end: 27 February 2019 00:00
Orbit: 403 x 411 km, 51.6° (Epoch: 17 February)

Date Brightness Start Highest point End Pass type
(mag) Time Alt. Az. Time Alt. Az. Time Alt. Az.
23 Feb -0.7 06:34:08 10° SSE 06:35:17 11° SE 06:36:26 10° ESE visible
25 Feb -1.6 06:25:49 10° SSW 06:28:28 23° SE 06:31:07 10° E visible
26 Feb -1.1 05:35:45 12° SSE 05:37:09 14° SE 05:39:01 10° ESE visible
